Zurück zum Katalog

FENGYUN 1C DEB

AktivSSO
NORAD 35156·DEBRIS·🇨🇳 China

Gestartet May 10, 1999 von Taiyuan Satellite Launch Center

Loading…

Nächste Überflüge (nächste 24 Stunden)

TLE

AktuellSource: Space-Track

Epoche: Sep 14, 2026, 10:22 UTC

1 35156U 99025DML 26257.43225544  .00000258  00000-0  16634-3 0  9994
2 35156  98.7788 242.1531 0037541  88.6674 271.8798 14.10916765679314

Verfolge FENGYUN 1C DEB in Echtzeit mit AllMySat

Download on the App Store